Weather History for Le Mars, IA

Change the Weather History Date:

Friday, May 11, 2012

  Actual Average Record
Temperature  
Mean Temperature 60 °F -  
Max Temperature 69 °F 72 °F 88 °F (1987)
Min Temperature 50 °F 47 °F 31 °F (1981)
Degree Days  
Heating Degree Days 5    
Growing Degree Days 10 (Base 50)    
Moisture  
Dew Point 41 °F    
Average Humidity 51    
Maximum Humidity 67    
Minimum Humidity 28    
Precipitation  
Precipitation 0.00 in - - ()
Sea Level Pressure  
Sea Level Pressure 30.07 in    
Wind  
Wind Speed 14 mph (NNW)    
Max Wind Speed 21 mph    
Max Gust Speed 29 mph    
Visibility 10 miles    
Events      
Averages and records for this station are not official NWS values.
T = Trace of Precipitation, MM = Missing Value Source: NWS Daily Summary

Daily Weather History Graph

Daily Weather History Graph

Search for Another Location

Airport:

Trip Planner

Search our weather history database for the weather conditions in past years. The results will help you decide how hot, cold, wet, or windy it might be!

Date:

Astronomy

May. 11, 2012 Rise Set
Actual Time 6:05 AM CDT 8:37 PM CDT
Civil Twilight 5:33 AM CDT 9:09 PM CDT
Nautical Twilight 4:53 AM CDT 9:49 PM CDT
Astronomical Twilight 4:08 AM CDT 10:34 PM CDT
Moon 1:16 AM CDT (5/11) 11:41 AM CDT (5/11)
Length of Visible Light 15h 35m
Length of Day
14h 31m
Waning Gibbous, 63% of the Moon is Illuminated
May 11
Waning Gibbous
May 12
Last Quarter
May 20
New
May 28
First Quarter
Jun 4
Full

Hourly Weather History & Observations

Time (CDT) Temp. Dew Point Humidity Pressure Visibility Wind Dir Wind Speed Gust Speed Precip Events Conditions
12:15 AM 69.8 °F 51.8 °F 53% 29.75 in 10.0 mi South 12.7 mph - N/A   Clear
12:35 AM 69.8 °F 51.8 °F 53% 29.75 in 10.0 mi SSW 12.7 mph - N/A   Clear
12:55 AM 68.0 °F 51.8 °F 56% 29.76 in 10.0 mi SSW 12.7 mph - N/A   Clear
1:15 AM 66.2 °F 51.8 °F 60% 29.77 in 10.0 mi SSW 12.7 mph - N/A   Clear
1:35 AM 66.2 °F 51.8 °F 60% 29.77 in 10.0 mi South 12.7 mph - N/A   Clear
1:55 AM 66.2 °F 51.8 °F 60% 29.78 in 10.0 mi SSW 11.5 mph - N/A   Clear
2:15 AM 66.2 °F 51.8 °F 60% 29.78 in 10.0 mi SSW 11.5 mph - N/A   Clear
2:35 AM 64.4 °F 50.0 °F 59% 29.78 in 10.0 mi SSW 12.7 mph - N/A   Clear
2:55 AM 64.4 °F 48.2 °F 56% 29.78 in 10.0 mi SSW 12.7 mph - N/A   Clear
3:15 AM 64.4 °F 48.2 °F 56% 29.79 in 10.0 mi SW 11.5 mph - N/A   Clear
3:35 AM 64.4 °F 48.2 °F 56% 29.82 in 10.0 mi West 13.8 mph 21.9 mph N/A   Clear
3:55 AM 62.6 °F 50.0 °F 63% 29.82 in 10.0 mi West 12.7 mph 16.1 mph N/A   Clear
4:15 AM 60.8 °F 46.4 °F 59% 29.85 in 10.0 mi WNW 15.0 mph 21.9 mph N/A   Clear
4:35 AM 59.0 °F 46.4 °F 63% 29.87 in 10.0 mi WNW 13.8 mph 20.7 mph N/A   Clear
4:55 AM 57.2 °F 44.6 °F 63% 29.88 in 10.0 mi WNW 19.6 mph 25.3 mph N/A   Clear
5:15 AM 57.2 °F 44.6 °F 63% 29.89 in 10.0 mi WNW 15.0 mph - N/A   Clear
5:35 AM 57.2 °F 44.6 °F 63% 29.91 in 10.0 mi NW 15.0 mph 21.9 mph N/A   Clear
5:55 AM 55.4 °F 44.6 °F 67% 29.91 in 10.0 mi NW 15.0 mph - N/A   Clear
6:15 AM 55.4 °F 42.8 °F 63% 29.93 in 10.0 mi North 18.4 mph 25.3 mph N/A   Clear
6:35 AM 55.4 °F 42.8 °F 63% 29.95 in 10.0 mi North 17.3 mph 25.3 mph N/A   Clear
6:55 AM 55.4 °F 42.8 °F 63% 29.97 in 10.0 mi North 13.8 mph 21.9 mph N/A   Clear
7:15 AM 55.4 °F 42.8 °F 63% 29.99 in 10.0 mi North 13.8 mph 23.0 mph N/A   Clear
7:35 AM 55.4 °F 44.6 °F 67% 29.99 in 10.0 mi North 15.0 mph 20.7 mph N/A   Clear
7:55 AM 57.2 °F 44.6 °F 63% 29.99 in 10.0 mi North 15.0 mph 21.9 mph N/A   Clear
8:15 AM 57.2 °F 42.8 °F 59% 30.01 in 10.0 mi North 15.0 mph 20.7 mph N/A   Clear
8:55 AM 59.0 °F 42.8 °F 55% 30.03 in 10.0 mi North 15.0 mph 26.5 mph N/A   Clear
9:15 AM 60.8 °F 41.0 °F 48% 30.04 in 10.0 mi North 15.0 mph 24.2 mph N/A   Clear
9:35 AM 60.8 °F 41.0 °F 48% 30.05 in 10.0 mi North 16.1 mph 23.0 mph N/A   Clear
9:55 AM 60.8 °F 39.2 °F 45% 30.06 in 10.0 mi North 15.0 mph 25.3 mph N/A   Clear
10:15 AM 62.6 °F 39.2 °F 42% 30.06 in 10.0 mi North 15.0 mph 24.2 mph N/A   Clear
10:35 AM 62.6 °F 41.0 °F 45% 30.07 in 10.0 mi North 13.8 mph 23.0 mph N/A   Clear
10:55 AM 62.6 °F 39.2 °F 42% 30.08 in 10.0 mi North 19.6 mph 23.0 mph N/A   Clear
11:15 AM 62.6 °F 39.2 °F 42% 30.08 in 10.0 mi NNW 18.4 mph 24.2 mph N/A   Clear
11:35 AM 64.4 °F 39.2 °F 40% 30.09 in 10.0 mi NNW 19.6 mph 25.3 mph N/A   Clear
11:55 AM 64.4 °F 39.2 °F 40% 30.10 in 10.0 mi NNW 17.3 mph 27.6 mph N/A   Clear
12:15 PM 64.4 °F 39.2 °F 40% 30.10 in 10.0 mi NNW 19.6 mph 23.0 mph N/A   Clear
12:35 PM 66.2 °F 39.2 °F 37% 30.10 in 10.0 mi North 16.1 mph 24.2 mph N/A   Clear
12:55 PM 66.2 °F 37.4 °F 35% 30.11 in 10.0 mi NNW 17.3 mph 26.5 mph N/A   Clear
1:15 PM 66.2 °F 37.4 °F 35% 30.11 in 10.0 mi North 18.4 mph 23.0 mph N/A   Clear
1:35 PM 66.2 °F 35.6 °F 32% 30.11 in 10.0 mi North 16.1 mph 25.3 mph N/A   Clear
1:55 PM 68.0 °F 35.6 °F 30% 30.11 in 10.0 mi North 17.3 mph 25.3 mph N/A   Clear
2:15 PM 68.0 °F 33.8 °F 28% 30.12 in 10.0 mi North 15.0 mph 20.7 mph N/A   Scattered Clouds
2:35 PM 66.2 °F 32.0 °F 28% 30.13 in 10.0 mi North 19.6 mph 25.3 mph N/A   Overcast
2:55 PM 66.2 °F 33.8 °F 30% 30.14 in 10.0 mi NNW 20.7 mph 25.3 mph N/A   Overcast
3:15 PM 66.2 °F 33.8 °F 30% 30.15 in 10.0 mi North 18.4 mph 25.3 mph N/A   Overcast
3:35 PM 62.6 °F 33.8 °F 34% 30.16 in 10.0 mi North 20.7 mph 26.5 mph N/A   Overcast
3:55 PM 62.6 °F 35.6 °F 37% 30.17 in 10.0 mi North 18.4 mph 26.5 mph N/A   Overcast
4:15 PM 60.8 °F 33.8 °F 36% 30.18 in 10.0 mi North 20.7 mph 27.6 mph N/A   Overcast
4:35 PM 60.8 °F 35.6 °F 39% 30.18 in 10.0 mi North 20.7 mph 28.8 mph N/A   Mostly Cloudy
4:55 PM 60.8 °F 35.6 °F 39% 30.19 in 10.0 mi North 16.1 mph 25.3 mph N/A   Mostly Cloudy
5:15 PM 59.0 °F 35.6 °F 42% 30.19 in 10.0 mi North 19.6 mph 28.8 mph N/A   Mostly Cloudy
5:35 PM 57.2 °F 39.2 °F 51% 30.21 in 10.0 mi North 18.4 mph - N/A   Mostly Cloudy
5:55 PM 55.4 °F 37.4 °F 51% 30.23 in 10.0 mi North 15.0 mph 25.3 mph N/A   Mostly Cloudy
6:15 PM 55.4 °F 35.6 °F 47% 30.23 in 10.0 mi North 15.0 mph 21.9 mph N/A   Mostly Cloudy
6:35 PM 53.6 °F 32.0 °F 44% 30.24 in 10.0 mi North 17.3 mph 24.2 mph N/A   Mostly Cloudy
6:55 PM 53.6 °F 37.4 °F 54% 30.25 in 10.0 mi North 9.2 mph - N/A   Mostly Cloudy
7:15 PM 53.6 °F 37.4 °F 54% 30.25 in 10.0 mi North 12.7 mph 18.4 mph N/A   Overcast
7:35 PM 53.6 °F 37.4 °F 54% 30.26 in 10.0 mi North 10.4 mph - N/A   Overcast
7:55 PM 53.6 °F 35.6 °F 51% 30.26 in 10.0 mi North 12.7 mph 16.1 mph N/A   Overcast
8:15 PM 53.6 °F 35.6 °F 51% 30.26 in 10.0 mi North 9.2 mph - N/A   Overcast
8:35 PM 53.6 °F 37.4 °F 54% 30.26 in 10.0 mi North 8.1 mph - N/A   Overcast
8:55 PM 53.6 °F 37.4 °F 54% 30.26 in 10.0 mi North 5.8 mph - N/A   Overcast
9:15 PM 53.6 °F 37.4 °F 54% 30.26 in 10.0 mi NNE 5.8 mph - N/A   Overcast
9:35 PM 51.8 °F 37.4 °F 58% 30.27 in 10.0 mi North 4.6 mph - N/A   Overcast
9:55 PM 51.8 °F 37.4 °F 58% 30.28 in 10.0 mi North 3.5 mph - N/A   Overcast
10:15 PM 51.8 °F 37.4 °F 58% 30.28 in 10.0 mi NNW 5.8 mph - N/A   Overcast
10:35 PM 51.8 °F 37.4 °F 58% 30.28 in 10.0 mi North 6.9 mph - N/A   Overcast
10:55 PM 51.8 °F 39.2 °F 62% 30.29 in 10.0 mi NNW 6.9 mph - N/A   Overcast
11:15 PM 51.8 °F 39.2 °F 62% 30.28 in 10.0 mi North 3.5 mph - N/A   Overcast
11:35 PM 51.8 °F 39.2 °F 62% 30.28 in 10.0 mi NNW 4.6 mph - N/A   Overcast
11:55 PM 50.0 °F 39.2 °F 66% 30.29 in 10.0 mi NW 5.8 mph - N/A   Overcast